This is the latest recevied weather packets stored in our database for station/object WB5LJZ-5. If no packets are shown the sender has not sent any weather packets the latest 10 day(s).
| Time | Temp. | Humidity | Pressure | Rain* | Wind** | Luminosity | Snow |
|---|---|---|---|---|---|---|---|
| 1777693959 | 12.78° C | - | - | 0 mm | 5.36 m/s, 31° | - | - |
| 1777693324 | 13.33° C | - | - | 0 mm | 6.26 m/s, 4° | - | - |
| 1777692688 | 13.33° C | - | - | 0 mm | 4.47 m/s, 1° | - | - |
| 1777692052 | 13.33° C | - | - | 0 mm | 3.58 m/s, 15° | - | - |
| 1777691416 | 13.89° C | - | - | 0 mm | 4.47 m/s, 0° | - | - |
| 1777690780 | 13.89° C | - | - | 0 mm | 4.02 m/s, 10° | - | - |
| 1777690145 | 14.44° C | - | - | 0 mm | 5.81 m/s, 8° | - | - |
| 1777689509 | 14.44° C | - | - | 0 mm | 3.13 m/s, 21° | - | - |
| 1777688873 | 14.44° C | - | - | 0 mm | 4.02 m/s, 17° | - | - |
| 1777688237 | 14.44° C | - | - | 0 mm | 5.36 m/s, 18° | - | - |
| 1777687601 | 14.44° C | - | - | 0 mm | 4.02 m/s, 21° | - | - |
| 1777686965 | 15° C | - | - | 0 mm | 6.71 m/s, 359° | - | - |
| 1777686330 | 15° C | - | - | 0 mm | 4.92 m/s, 10° | - | - |
| 1777685694 | 15° C | - | - | 0 mm | 4.47 m/s, 21° | - | - |
| 1777685055 | 15° C | - | - | 0 mm | 4.02 m/s, 3° | - | - |
| 1777684419 | 15° C | - | - | 0 mm | 5.81 m/s, 8° | - | - |
| 1777683784 | 15.56° C | - | - | 0 mm | 3.58 m/s, 359° | - | - |
| 1777683148 | 15.56° C | - | - | 0 mm | 7.15 m/s, 15° | - | - |
| 1777682512 | 16.11° C | - | - | 0 mm | 6.71 m/s, 6° | - | - |
| 1777681876 | 16.11° C | - | - | 0 mm | 5.81 m/s, 17° | - | - |
| 1777681241 | 16.11° C | - | - | 0 mm | 4.92 m/s, 18° | - | - |
| 1777680605 | 16.67° C | - | - | 0 mm | 6.26 m/s, 24° | - | - |
| 1777679969 | 16.67° C | - | - | 0 mm | 5.36 m/s, 4° | - | - |
| 1777679333 | 17.22° C | - | - | 0 mm | 6.71 m/s, 3° | - | - |
| 1777678697 | 17.22° C | - | - | 0 mm | 7.15 m/s, 4° | - | - |
* Rain latest hour (hover to see other rain measurements)
** Current wind speed in m/s (hover to see current wind gust speed)